Accueil
METAR-TAF:

METAR-TAF

Aéroports :

Aéroport d'Épinal-Mirecourt

Épinal, France

latitude: 48-19-31N, longitude: 6-04-00E, altitude: 330 m

Observation

Le bulletin a été fait il y a 32 minutes, à 05:00 UTC
Vent calme
Température 3°C
Humidité 100%
Pression 1025 hPa
Visibilité: 2800 m
brume

METAR: LFSG 240500Z AUTO 00000KT 2800 BR NSC 03/03 Q1025

Heure: 06:32 (05:32 UTC)


TAF: absent

Observations et prévisions météorologiques de plus de 4000 aéroports (messages METAR et TAF).

Les stations disponibles sont représentées par des disques jaunes et rouges sur la carte.

Passer la souris dessus pour voir le nom de la station.

Cliquer dessus pour voir les observations et prévisions météorologiques.

Pour changer de carte: cliquez sur les boutons verts avec une croix noire pour zoomer, sur le bouton vert avec un tiret pour effectuer un zoom arrière, ou sur les flèches vertes pour les cartes adjacentes.


METAR-TAF: